Location: Breezy Point Observatory
(38.9725°N, 81.7133°W)
Time: 00:23:10
(UTC-04:00)

HST - Visible Passes

Search period start: 26 October 2014 00:00
Search period end: 04 November 2014 23:00
Orbit: 546 x 550 km, 28.5° (Epoch: 24 October)

Date Brightness Start Highest point End Pass type
(mag) Time Alt. Az. Time Alt. Az. Time Alt. Az.
26 Oct 3.1 20:42:30 10° SW 20:43:54 15° SSW 20:43:54 15° SSW visible
27 Oct 3.2 18:56:03 10° S 18:57:12 11° SSE 18:58:21 10° SSE visible
27 Oct 2.9 20:34:58 10° SW 20:37:03 18° S 20:37:03 18° S visible
28 Oct 2.8 20:27:29 10° SW 20:30:11 19° S 20:30:11 19° S visible
29 Oct 2.7 20:20:04 10° SW 20:23:05 19° S 20:23:18 19° S visible
30 Oct 2.7 20:12:42 10° SW 20:15:40 19° S 20:16:25 18° S visible
31 Oct 2.8 20:05:23 10° SW 20:08:15 18° S 20:09:34 16° SSE visible
01 Nov 3.1 19:58:08 10° SW 20:00:48 17° S 20:02:46 13° SSE visible
02 Nov 3.3 18:50:58 10° SW 18:53:21 15° SSW 18:55:43 10° SSE visible
03 Nov 3.4 18:43:58 10° SW 18:45:52 13° SSW 18:47:46 10° SSE visible
04 Nov 3.6 18:37:23 10° SSW 18:38:23 11° SSW 18:39:23 10° S visible
